IZ1PKI Genova IT current weather conditions

sailwx.info

Wind from 327 at 8 knots gusting 24

Air temperature 15.6° C
Dewpoint 8.5° C

Last reported at 2019-Sep-21 04:03 UTC.
Time now 2019-Sep-21 05:06 UTC

Location: N 44°26' E 008°56'.
View on Google Maps.

See reports from other nearby stations

  
Tides and Currents Weather Stations Pressure Air Temp Water Temp Dewpoint Dewpoint Depression Visibility Wind Speed Wind Dir Waves Ship Positions
date/time (UTC)wind fromknots sea level pressurealtimeterstation pressurevisibilityair tempwater tempwave heightnotes
2019-Sep-21 04:03 327 8 gusting 24 15.6
2019-Sep-21 03:58 334 10 gusting 22 15.6
2019-Sep-21 03:53 16.1
2019-Sep-21 03:48 329 17 gusting 23 16.1
2019-Sep-21 03:43 317 13 gusting 22 16.1
2019-Sep-21 03:38 355 8 gusting 19 16.1
2019-Sep-21 03:33 329 13 gusting 24 16.1
2019-Sep-21 03:28 319 8 gusting 26 16.1
2019-Sep-21 03:23 346 13 gusting 24 16.1
2019-Sep-21 03:18 325 13 gusting 25 16.1
2019-Sep-21 03:13 329 14 gusting 19 16.1
2019-Sep-21 03:08 021 8 gusting 24 16.1
2019-Sep-21 03:03 005 13 gusting 25 16.1
2019-Sep-21 02:58 023 22 gusting 32 16.1
2019-Sep-21 02:53 009 14 gusting 22 16.1
2019-Sep-21 02:48 323 13 gusting 25 16.1
2019-Sep-21 02:43 336 17 gusting 19 16.7
2019-Sep-21 02:38 311 13 gusting 21 16.7
2019-Sep-21 02:33 340 5 gusting 21 16.7
2019-Sep-21 02:28 331 17 gusting 23 16.7
2019-Sep-21 02:23 005 7 gusting 20 16.7
2019-Sep-21 02:18 323 6 gusting 23 16.7
2019-Sep-21 02:13 311 12 gusting 22 17.2
2019-Sep-21 02:08 17.2
2019-Sep-21 02:03 339 17 gusting 19 17.2
2019-Sep-21 01:59 338 6 gusting 20 17.2
2019-Sep-21 01:54 030 11 gusting 19 17.2
2019-Sep-21 01:49 025 15 gusting 21 17.2
2019-Sep-21 01:44 345 19 gusting 19 17.2
2019-Sep-21 01:39 268 8 gusting 17 17.2
2019-Sep-21 01:34 315 7 gusting 18 17.2
2019-Sep-21 01:29 011 17 gusting 20 17.2
2019-Sep-21 01:24 341 10 gusting 19 17.2
2019-Sep-21 01:19 342 20 gusting 20 17.2
2019-Sep-21 01:14 036 6 gusting 21 17.2
2019-Sep-21 01:09 314 8 gusting 19 16.7
2019-Sep-21 01:04 005 15 gusting 27 16.7
2019-Sep-21 00:59 009 12 gusting 25 16.7
2019-Sep-21 00:54 019 13 gusting 21 16.7
2019-Sep-21 00:49 334 13 gusting 22 17.2
2019-Sep-21 00:44 322 6 gusting 22 17.2
2019-Sep-21 00:39 17.2
2019-Sep-21 00:34 320 11 gusting 21 17.2
2019-Sep-21 00:29 022 10 gusting 22 17.2
2019-Sep-21 00:24 011 16 gusting 20 17.2
2019-Sep-21 00:19 319 8 gusting 22 17.2
2019-Sep-21 00:14 355 13 gusting 20 17.2
2019-Sep-21 00:09 015 12 gusting 22 17.2
2019-Sep-21 00:04 005 21 gusting 25 17.2
2019-Sep-20 23:59 025 24 gusting 25 17.2
2019-Sep-20 23:54 309 9 gusting 20 17.2
2019-Sep-20 23:49 024 8 gusting 22 17.8
2019-Sep-20 23:44 325 15 gusting 23 17.8
2019-Sep-20 23:39 355 11 gusting 16 17.8
2019-Sep-20 23:34 325 14 gusting 20 17.8
2019-Sep-20 23:29 005 11 gusting 26 18.3
2019-Sep-20 23:24 342 11 gusting 19 18.3
2019-Sep-20 23:19 342 7 gusting 18 18.3
2019-Sep-20 23:14 319 11 gusting 19 18.3
2019-Sep-20 23:09 044 19 gusting 19 18.3
2019-Sep-20 23:04 038 10 gusting 17 18.3
2019-Sep-20 22:59 334 8 gusting 17 18.3
2019-Sep-20 22:54 327 7 gusting 18 18.3
2019-Sep-20 22:49 18.3
2019-Sep-20 22:44 335 5 gusting 17 18.3
2019-Sep-20 22:39 050 5 gusting 13 18.3
2019-Sep-20 22:34 348 2 gusting 16 18.3
2019-Sep-20 22:29 341 13 gusting 16 18.3
2019-Sep-20 22:24 340 3 gusting 13 18.3
2019-Sep-20 22:19 015 9 gusting 11 18.3
2019-Sep-20 22:14 022 8 gusting 13 18.3
2019-Sep-20 22:09 355 4 gusting 12 18.3
2019-Sep-20 22:04 298 6 gusting 13 18.3
2019-Sep-20 21:59 020 6 gusting 11 18.3
2019-Sep-20 21:54 005 3 gusting 9 18.3
2019-Sep-20 21:49 340 2 gusting 8 18.3
2019-Sep-20 21:44 018 1 gusting 7 18.3
2019-Sep-20 21:39 333 6 gusting 8 18.3
2019-Sep-20 21:34 271 6 gusting 9 18.3
2019-Sep-20 21:29 071 2 gusting 7 18.3
2019-Sep-20 21:24 18.3
2019-Sep-20 21:19 044 1 gusting 10 18.9
2019-Sep-20 21:14 110 4 gusting 5 18.9
2019-Sep-20 21:09 286 1 gusting 6 18.9
2019-Sep-20 21:04 173 1 gusting 4 18.9
2019-Sep-20 20:59 090 1 gusting 6 18.9
2019-Sep-20 20:54 355 0 gusting 6 18.9
2019-Sep-20 20:49 059 3 gusting 6 18.9
2019-Sep-20 20:44 019 1 gusting 8 18.9
2019-Sep-20 20:39 355 18.9
2019-Sep-20 20:34 348 3 gusting 11 18.9
2019-Sep-20 20:29 333 6 gusting 11 18.9
2019-Sep-20 20:24 319 1 gusting 9 18.9
2019-Sep-20 20:19 011 6 gusting 12 18.9
2019-Sep-20 20:14 038 4 gusting 13 18.9
2019-Sep-20 20:09 025 7 gusting 15 18.9
2019-Sep-20 20:04 355 4 gusting 13 18.9
2019-Sep-20 19:59 005 13 gusting 14 18.9
2019-Sep-20 19:54 336 4 gusting 17 18.9
2019-Sep-20 19:49 333 6 gusting 17 18.9
2019-Sep-20 19:44 005 10 gusting 18 18.9
2019-Sep-20 19:39 348 13 gusting 20 18.9
2019-Sep-20 19:34 309 8 gusting 19 18.9
2019-Sep-20 19:29 326 10 gusting 19 18.9
2019-Sep-20 19:24 028 7 gusting 19 18.9
2019-Sep-20 19:19 345 9 gusting 22 18.9
2019-Sep-20 19:14 022 19 gusting 18 18.9
2019-Sep-20 19:09 320 11 gusting 21 18.9
2019-Sep-20 19:04 355 19 gusting 21 18.9
2019-Sep-20 18:59 042 7 gusting 19 18.9
2019-Sep-20 18:54 329 11 gusting 18 18.9
2019-Sep-20 18:49 335 10 gusting 19 18.9
2019-Sep-20 18:44 18.9
2019-Sep-20 18:39 355 9 gusting 18 19.4
2019-Sep-20 18:34 313 9 gusting 17 19.4
2019-Sep-20 18:29 343 6 gusting 18 19.4
2019-Sep-20 18:24 312 13 gusting 18 19.4
2019-Sep-20 18:19 021 12 gusting 20 19.4
2019-Sep-20 18:14 344 12 gusting 19 19.4
2019-Sep-20 18:09 031 12 gusting 18 19.4
2019-Sep-20 18:04 309 8 gusting 21 19.4
2019-Sep-20 17:59 036 6 gusting 18 20.0
2019-Sep-20 17:54 313 13 gusting 19 20.0
2019-Sep-20 17:49 014 1 gusting 17 20.0
2019-Sep-20 17:44 355 13 gusting 19 20.0
2019-Sep-20 17:39 314 7 gusting 17 20.0
2019-Sep-20 17:34 273 6 gusting 17 20.0
2019-Sep-20 17:29 20.6
2019-Sep-20 17:24 039 7 gusting 12 20.6
2019-Sep-20 17:19 315 2 gusting 14 20.6
2019-Sep-20 17:14 343 0 gusting 17 20.6
2019-Sep-20 17:09 20.6
2019-Sep-20 17:04 338 3 gusting 16 21.1
2019-Sep-20 16:59 270 6 gusting 18 21.1
2019-Sep-20 16:54 005 5 gusting 17 21.1
2019-Sep-20 16:49 355 13 gusting 19 21.1
2019-Sep-20 16:44 305 13 gusting 19 21.1
2019-Sep-20 16:39 325 10 gusting 16 21.7
2019-Sep-20 16:34 288 6 gusting 18 21.7
2019-Sep-20 16:29 336 18 gusting 18 21.7
2019-Sep-20 16:24 355 9 gusting 13 21.7
2019-Sep-20 16:19 314 7 gusting 14 21.7
2019-Sep-20 16:14 317 11 gusting 19 21.7
2019-Sep-20 16:09 306 7 gusting 15 21.7
2019-Sep-20 16:04 300 12 gusting 16 21.7
2019-Sep-20 15:59 339 9 gusting 21 22.2
2019-Sep-20 15:54 319 13 gusting 18 22.2
2019-Sep-20 15:49 013 14 gusting 14 22.2
2019-Sep-20 15:44 319 9 gusting 17 22.2
2019-Sep-20 15:39 330 13 gusting 19 22.2
2019-Sep-20 15:34 335 9 gusting 18 22.2
2019-Sep-20 15:29 324 9 gusting 13 22.2
2019-Sep-20 15:24 309 6 gusting 18 22.2
2019-Sep-20 15:19 342 10 gusting 19 22.2
2019-Sep-20 15:14 351 16 gusting 17 22.2
2019-Sep-20 15:09 329 4 gusting 13 22.8
2019-Sep-20 15:04 296 11 gusting 17 22.2
2019-Sep-20 14:59 014 7 gusting 18 22.2
2019-Sep-20 14:54 276 10 gusting 19 22.2
2019-Sep-20 14:49 342 10 gusting 17 22.2
2019-Sep-20 14:44 290 13 gusting 18 22.2
2019-Sep-20 14:39 020 13 gusting 17 22.2
2019-Sep-20 14:34 293 17 gusting 19 22.2
2019-Sep-20 14:29 329 6 gusting 15 22.8
2019-Sep-20 14:24 316 8 gusting 14 22.8
2019-Sep-20 14:19 311 10 gusting 18 22.2
2019-Sep-20 14:14 309 6 gusting 19 22.2
2019-Sep-20 14:09 336 11 gusting 14 22.2
2019-Sep-20 14:04 316 11 gusting 18 22.2
2019-Sep-20 13:59 312 14 gusting 18 22.2
2019-Sep-20 13:54 294 10 gusting 20 22.2
2019-Sep-20 13:49 322 13 gusting 16 22.2
2019-Sep-20 13:44 318 8 gusting 15 22.2
2019-Sep-20 13:39 328 6 gusting 22 22.2
2019-Sep-20 13:34 308 10 gusting 18 22.2
2019-Sep-20 13:29 290 8 gusting 18 22.2
2019-Sep-20 13:24 327 11 gusting 15 22.2
2019-Sep-20 13:19 326 6 gusting 14 22.2
2019-Sep-20 13:14 339 5 gusting 16 22.2
2019-Sep-20 13:09 333 10 gusting 15 22.2
2019-Sep-20 13:04 263 8 gusting 13 22.2
2019-Sep-20 12:59 039 3 gusting 14 22.2
2019-Sep-20 12:54 317 6 gusting 15 22.2
2019-Sep-20 12:49 005 2 gusting 8 22.2
2019-Sep-20 12:44 040 3 gusting 18 21.7
2019-Sep-20 12:39 302 12 gusting 19 21.7
2019-Sep-20 12:34 022 3 gusting 18 21.7
2019-Sep-20 12:29 259 5 gusting 17 21.7
2019-Sep-20 12:24 21.1
2019-Sep-20 12:19 264 6 gusting 16 21.1
2019-Sep-20 12:14 21.1
2019-Sep-20 12:09 319 8 gusting 23 21.1
2019-Sep-20 12:04 340 10 gusting 18 20.6
2019-Sep-20 11:59 325 6 gusting 20 20.6
2019-Sep-20 11:54 005 6 gusting 18 20.6
2019-Sep-20 11:49 320 8 gusting 19 20.6
2019-Sep-20 11:44 042 8 gusting 16 20.6
2019-Sep-20 11:39 038 12 gusting 18 20.6
2019-Sep-20 11:34 342 14 gusting 18 20.6
2019-Sep-20 11:29 20.6
2019-Sep-20 11:24 313 8 gusting 18 20.0
2019-Sep-20 11:19 327 6 gusting 18 20.0
2019-Sep-20 11:14 318 7 gusting 22 20.0
2019-Sep-20 11:09 349 7 gusting 20 20.0
2019-Sep-20 11:04 19.4
2019-Sep-20 10:59 344 5 gusting 19 19.4
2019-Sep-20 10:54 332 6 gusting 19 19.4
2019-Sep-20 10:49 021 14 gusting 19 19.4
2019-Sep-20 10:44 355 14 gusting 19 19.4
2019-Sep-20 10:39 292 12 gusting 20 19.4
2019-Sep-20 10:34 19.4
2019-Sep-20 10:29 19.4
2019-Sep-20 10:24 040 12 gusting 22 18.9
2019-Sep-20 10:19 330 13 gusting 19 18.9
2019-Sep-20 10:14 022 6 gusting 19 18.9
2019-Sep-20 10:09 009 10 gusting 19 18.9
2019-Sep-20 10:04 318 8 gusting 19 18.3
2019-Sep-20 09:59 319 14 gusting 22 18.3
2019-Sep-20 09:54 332 13 gusting 19 18.3
2019-Sep-20 09:49 288 12 gusting 19 18.3
2019-Sep-20 09:44 336 13 gusting 19 18.3
2019-Sep-20 09:39 005 10 gusting 18 18.3
2019-Sep-20 09:34 005 10 gusting 19 18.3
2019-Sep-20 09:29 344 6 gusting 18 18.3
2019-Sep-20 09:24 341 15 gusting 21 17.8
2019-Sep-20 09:19 016 10 gusting 19 17.8
2019-Sep-20 09:14 328 8 gusting 20 17.8
2019-Sep-20 09:09 028 11 gusting 21 17.8
2019-Sep-20 09:04 18.3
2019-Sep-20 08:59 321 6 gusting 15 18.3
2019-Sep-20 08:54 017 7 gusting 14 17.8
2019-Sep-20 08:49 273 10 gusting 14 17.8
2019-Sep-20 08:44 017 6 gusting 19 17.8
2019-Sep-20 08:39 314 6 gusting 15 17.8
2019-Sep-20 08:34 267 9 gusting 16 17.8
2019-Sep-20 08:29 340 5 gusting 16 17.8
2019-Sep-20 08:24 337 7 gusting 15 17.8
2019-Sep-20 08:19 320 11 gusting 18 17.8
2019-Sep-20 08:14 325 12 gusting 19 17.2
2019-Sep-20 08:09 333 18 gusting 18 17.2
2019-Sep-20 08:04 328 9 gusting 23 17.2
2019-Sep-20 07:59 333 8 gusting 21 17.2
2019-Sep-20 07:54 010 19 gusting 25 17.2
2019-Sep-20 07:49 330 15 gusting 20 17.2
2019-Sep-20 07:44 319 13 gusting 23 16.7
2019-Sep-20 07:39 335 15 gusting 20 16.7
2019-Sep-20 07:34 340 12 gusting 20 16.7
2019-Sep-20 07:29 323 12 gusting 20 16.7
2019-Sep-20 07:24 326 9 gusting 22 16.7
2019-Sep-20 07:19 355 11 gusting 25 16.7
2019-Sep-20 07:14 326 11 gusting 21 16.7
2019-Sep-20 07:09 026 12 gusting 20 16.7
2019-Sep-20 07:04 16.7
2019-Sep-20 06:59 311 12 gusting 18 16.7
2019-Sep-20 06:54 336 7 gusting 18 16.7
2019-Sep-20 06:49 304 11 gusting 17 16.7
2019-Sep-20 06:44 323 10 gusting 19 16.7
2019-Sep-20 06:39 307 6 gusting 19 16.7
2019-Sep-20 06:34 288 9 gusting 20 17.2
2019-Sep-20 06:29 327 6 gusting 22 17.2
2019-Sep-20 06:24 348 9 gusting 20 17.2
2019-Sep-20 06:19 313 15 gusting 20 16.7
2019-Sep-20 06:14 311 9 gusting 20 16.7
2019-Sep-20 06:09 335 15 gusting 20 16.7
2019-Sep-20 06:04 327 16 gusting 21 16.7
2019-Sep-20 05:59 005 9 gusting 19 16.7
2019-Sep-20 05:54 293 14 gusting 21 17.2
2019-Sep-20 05:49 317 10 gusting 19 17.2
2019-Sep-20 05:44 355 6 gusting 22 17.2
2019-Sep-20 05:39 355 15 gusting 24 16.7
2019-Sep-20 05:34 315 13 gusting 23 16.7
2019-Sep-20 05:29 018 25 gusting 25 17.2
2019-Sep-20 05:24 314 10 gusting 22 17.2
2019-Sep-20 05:19 321 13 gusting 17 17.2
2019-Sep-20 05:14 005 6 gusting 20 17.2
2019-Sep-20 05:09 349 8 gusting 19 17.2
2019-Sep-20 05:04 309 11 gusting 20 17.2
2019-Sep-20 04:59 017 13 gusting 26 17.2
2019-Sep-20 04:54 355 13 gusting 22 17.2
2019-Sep-20 04:49 311 12 gusting 20 17.2
2019-Sep-20 04:44 340 11 gusting 19 17.2
2019-Sep-20 04:39 317 12 gusting 20 17.2
2019-Sep-20 04:34 048 6 gusting 19 17.2
2019-Sep-20 04:29 005 8 gusting 19 17.2
2019-Sep-20 04:24 332 8 gusting 18 17.8
2019-Sep-20 04:19 042 14 gusting 19 17.8
2019-Sep-20 04:14 344 11 gusting 21 17.8
2019-Sep-20 04:09 17.8
2019-Sep-20 04:04 339 11 gusting 19 17.2
2019-Sep-20 03:59 331 13 gusting 18 17.2
2019-Sep-20 03:54 325 7 gusting 19 17.2
2019-Sep-20 03:49 348 7 gusting 17 17.2
2019-Sep-20 03:44 345 10 gusting 16 17.2
2019-Sep-20 03:39 348 7 gusting 12 17.2
2019-Sep-20 03:34 029 8 gusting 14 17.2
2019-Sep-20 03:29 014 14 gusting 14 17.2
2019-Sep-20 03:24 315 8 gusting 15 17.2
2019-Sep-20 03:19 035 5 gusting 15 17.2
2019-Sep-20 03:14 325 7 gusting 18 17.2
2019-Sep-20 03:09 331 11 gusting 15 17.2
2019-Sep-20 03:04 341 7 gusting 16 17.2
2019-Sep-20 02:59 340 9 gusting 13 17.2
2019-Sep-20 02:54 299 6 gusting 13 17.2
2019-Sep-20 02:49 17.2
2019-Sep-20 02:44 355 13 gusting 17 17.2
2019-Sep-20 02:39 17.2
2019-Sep-20 02:34 017 13 gusting 19 17.2
2019-Sep-20 02:29 338 14 gusting 20 17.2
2019-Sep-20 02:24 323 19 gusting 26 17.2
2019-Sep-20 02:19 349 10 gusting 19 17.2
2019-Sep-20 02:14 031 15 gusting 19 17.8
2019-Sep-20 02:09 311 9 gusting 19 17.2
2019-Sep-20 02:04 355 10 gusting 17 17.2
2019-Sep-20 01:59 338 10 gusting 17 17.2
2019-Sep-20 01:54 330 10 gusting 18 17.8
2019-Sep-20 01:49 355 13 gusting 20 17.8
2019-Sep-20 01:44 17.8
2019-Sep-20 01:39 332 5 gusting 19 17.8
2019-Sep-20 01:34 005 12 gusting 19 17.8
2019-Sep-20 01:29 009 10 gusting 24 17.8
2019-Sep-20 01:24 355 13 gusting 28 17.8
2019-Sep-20 01:19 025 17 gusting 25 17.8
2019-Sep-20 01:14 355 18 gusting 22 17.8
2019-Sep-20 01:09 355 7 gusting 22 17.8
2019-Sep-20 01:04 009 16 gusting 22 17.8
2019-Sep-20 00:59 355 13 gusting 23 17.8
2019-Sep-20 00:54 336 16 gusting 21 17.8
2019-Sep-20 00:49 309 10 gusting 23 17.8
2019-Sep-20 00:44 355 10 gusting 24 17.8
2019-Sep-20 00:39 044 18 gusting 19 17.8
2019-Sep-20 00:34 333 17 gusting 20 17.8
2019-Sep-20 00:29 342 11 gusting 19 18.3
2019-Sep-20 00:24 18.3
2019-Sep-20 00:19 18.3
2019-Sep-20 00:14 015 10 gusting 17 18.3
2019-Sep-20 00:09 290 12 gusting 18 18.3
2019-Sep-20 00:04 329 5 gusting 18 18.9
2019-Sep-19 23:59 044 9 gusting 19 18.9
2019-Sep-19 23:54 005 13 gusting 20 18.9
2019-Sep-19 23:49 016 13 gusting 20 18.9
2019-Sep-19 23:44 012 13 gusting 23 18.9
2019-Sep-19 23:39 333 11 gusting 21 18.3
2019-Sep-19 23:34 009 8 gusting 19 18.3
2019-Sep-19 23:29 333 14 gusting 19 18.9
2019-Sep-19 23:24 355 13 gusting 19 18.9
2019-Sep-19 23:19 333 16 gusting 20 18.9
2019-Sep-19 23:14 298 11 gusting 19 18.9
2019-Sep-19 23:09 331 13 gusting 21 18.9
2019-Sep-19 23:04 305 13 gusting 21 18.9
2019-Sep-19 22:59 024 13 gusting 22 18.9
2019-Sep-19 22:54 18.9
2019-Sep-19 22:49 297 19 gusting 21 18.9
2019-Sep-19 22:44 005 12 gusting 23 18.9
2019-Sep-19 22:39 321 12 gusting 22 18.9
2019-Sep-19 22:34 350 19 gusting 19 18.9
2019-Sep-19 22:29 327 13 gusting 23 18.9
2019-Sep-19 22:24 327 18 gusting 20 18.9
2019-Sep-19 22:19 030 10 gusting 19 18.9
2019-Sep-19 22:14 326 11 gusting 21 18.9
2019-Sep-19 22:09 355 9 gusting 19 18.9
2019-Sep-19 22:04 327 13 gusting 20 18.9
2019-Sep-19 21:59 18.9
2019-Sep-19 21:54 305 10 gusting 23 18.9
2019-Sep-19 21:49 320 13 gusting 22 19.4
2019-Sep-19 21:44 338 16 gusting 21 19.4
2019-Sep-19 21:39 326 19 gusting 23 19.4
2019-Sep-19 21:34 335 15 gusting 26 19.4
2019-Sep-19 21:29 292 14 gusting 21 19.4
2019-Sep-19 21:24 324 13 gusting 26 19.4
2019-Sep-19 21:19 304 9 gusting 20 19.4
2019-Sep-19 21:14 329 18 gusting 19 19.4
2019-Sep-19 21:09 290 13 gusting 19 19.4
2019-Sep-19 21:04 317 14 gusting 26 19.4
2019-Sep-19 20:59 355 9 gusting 21 20.0
2019-Sep-19 20:54 315 10 gusting 23 19.4
2019-Sep-19 20:49 355 14 gusting 19 19.4
2019-Sep-19 20:44 326 9 gusting 20 19.4
2019-Sep-19 20:39 005 13 gusting 19 19.4
2019-Sep-19 20:34 317 13 gusting 20 19.4
2019-Sep-19 20:29 336 13 gusting 21 19.4
2019-Sep-19 20:24 299 18 gusting 20 19.4
2019-Sep-19 20:19 343 8 gusting 22 19.4
2019-Sep-19 20:14 335 14 gusting 24 19.4
2019-Sep-19 20:09 022 17 gusting 25 19.4
2019-Sep-19 20:04 19.4
2019-Sep-19 19:59 315 13 gusting 19 20.0
2019-Sep-19 19:54 20.0
2019-Sep-19 19:49 011 15 gusting 21 20.0
2019-Sep-19 19:44 328 13 gusting 22 20.0
2019-Sep-19 19:39 319 13 gusting 26 20.0
2019-Sep-19 19:34 005 19 gusting 19 20.0
2019-Sep-19 19:29 322 14 gusting 23 20.0
2019-Sep-19 19:24 331 15 gusting 21 20.0
2019-Sep-19 19:19 019 16 gusting 24 20.0
2019-Sep-19 19:14 328 10 gusting 21 20.0
2019-Sep-19 19:09 336 11 gusting 25 20.0
2019-Sep-19 19:04 050 13 gusting 21 20.0
2019-Sep-19 18:59 348 14 gusting 23 20.0
2019-Sep-19 18:54 312 11 gusting 22 20.0
2019-Sep-19 18:49 332 12 gusting 20 20.0
2019-Sep-19 18:44 319 11 gusting 17 20.0
2019-Sep-19 18:39 355 13 gusting 20 20.0
2019-Sep-19 18:34 288 8 gusting 19 20.0
2019-Sep-19 18:29 330 8 gusting 19 20.0
2019-Sep-19 18:24 299 9 gusting 20 20.6
2019-Sep-19 18:19 017 19 gusting 20 20.6
2019-Sep-19 18:14 319 10 gusting 17 20.6
2019-Sep-19 18:09 328 10 gusting 22 20.6
2019-Sep-19 18:04 033 15 gusting 19 20.6
2019-Sep-19 17:59 335 10 gusting 19 20.6
2019-Sep-19 17:54 013 12 gusting 19 20.6
2019-Sep-19 17:49 320 7 gusting 17 20.6
2019-Sep-19 17:44 022 8 gusting 22 20.6
2019-Sep-19 17:39 342 11 gusting 16 20.6
2019-Sep-19 17:34 015 9 gusting 24 20.6
2019-Sep-19 17:29 018 13 gusting 25 20.6
2019-Sep-19 17:24 20.6
2019-Sep-19 17:19 338 19 gusting 24 20.6
2019-Sep-19 17:14 034 22 gusting 23 21.1
2019-Sep-19 17:09 300 19 gusting 24 21.1
2019-Sep-19 17:04 005 21 gusting 26 21.1
2019-Sep-19 16:59 021 10 gusting 24 21.1
2019-Sep-19 16:54 305 18 gusting 21 21.1
2019-Sep-19 16:49 005 6 gusting 19 21.1
2019-Sep-19 16:44 292 16 gusting 23 21.1
2019-Sep-19 16:39 321 13 gusting 20 21.1
2019-Sep-19 16:34 307 11 gusting 21 21.1
2019-Sep-19 16:29 329 14 gusting 22 21.1
2019-Sep-19 16:24 022 15 gusting 24 21.1
2019-Sep-19 16:19 288 17 gusting 19 21.1
2019-Sep-19 16:14 350 13 gusting 23 21.1
2019-Sep-19 16:09 344 8 gusting 24 21.1
2019-Sep-19 16:04 011 13 gusting 18 21.7
2019-Sep-19 15:59 341 10 gusting 19 21.7
2019-Sep-19 15:54 339 10 gusting 22 21.7
2019-Sep-19 15:49 313 8 gusting 23 21.7
2019-Sep-19 15:44 350 13 gusting 23 21.7
2019-Sep-19 15:39 005 20 gusting 26 21.7
2019-Sep-19 15:34 348 16 gusting 25 21.7
2019-Sep-19 15:29 320 12 gusting 23 21.7
2019-Sep-19 15:24 319 6 gusting 26 21.7
2019-Sep-19 15:19 345 14 gusting 23 21.7
2019-Sep-19 15:14 330 10 gusting 24 21.7
2019-Sep-19 15:09 286 2 gusting 19 21.7
2019-Sep-19 15:04 346 19 gusting 20 21.1
2019-Sep-19 14:59 308 12 gusting 28 21.7
2019-Sep-19 14:54 342 7 gusting 20 21.7
2019-Sep-19 14:49 337 15 gusting 29 21.1
2019-Sep-19 14:44 336 17 gusting 24 21.1
2019-Sep-19 14:39 328 19 gusting 26 21.1
2019-Sep-19 14:34 319 16 gusting 26 21.1
2019-Sep-19 14:29 319 20 gusting 26 21.1
2019-Sep-19 14:24 315 13 gusting 25 21.1
2019-Sep-19 14:19 026 12 gusting 23 21.1
2019-Sep-19 14:14 337 17 gusting 18 21.1
2019-Sep-19 14:09 010 11 gusting 28 21.1
2019-Sep-19 14:04 341 6 gusting 25 21.1
2019-Sep-19 13:59 005 12 gusting 24 21.1
2019-Sep-19 13:54 333 15 gusting 25 20.6
2019-Sep-19 13:49 011 18 gusting 28 20.6
2019-Sep-19 13:44 349 14 gusting 26 20.6
2019-Sep-19 13:39 026 14 gusting 26 20.6
2019-Sep-19 13:34 321 15 gusting 26 20.6
2019-Sep-19 13:29 016 5 gusting 26 20.0
2019-Sep-19 13:24 340 16 gusting 27 20.0
2019-Sep-19 13:19 306 12 gusting 29 20.0
2019-Sep-19 13:14 313 13 gusting 25 20.6
2019-Sep-19 13:09 040 11 gusting 32 20.6
2019-Sep-19 13:04 313 8 gusting 26 20.6
2019-Sep-19 12:59 342 13 gusting 24 20.6
2019-Sep-19 12:54 018 15 gusting 25 20.6
2019-Sep-19 12:49 355 9 gusting 21 20.6
2019-Sep-19 12:44 311 15 gusting 28 20.6
2019-Sep-19 12:39 355 8 gusting 22 20.6
2019-Sep-19 12:34 340 6 gusting 22 20.6
2019-Sep-19 12:29 355 16 gusting 26 20.6
2019-Sep-19 12:24 311 17 gusting 26 20.6
2019-Sep-19 12:19 019 6 gusting 26 20.6
2019-Sep-19 12:14 010 19 gusting 22 20.6
2019-Sep-19 12:09 005 23 gusting 23 20.6
2019-Sep-19 12:04 333 8 gusting 20 20.6
2019-Sep-19 11:59 325 10 gusting 23 20.6
2019-Sep-19 11:54 321 11 gusting 19 20.6
2019-Sep-19 11:49 301 12 gusting 22 20.0
2019-Sep-19 11:44 320 13 gusting 28 19.4
2019-Sep-19 11:39 005 13 gusting 24 19.4
2019-Sep-19 11:34 338 14 gusting 26 19.4
2019-Sep-19 11:29 265 15 gusting 26 19.4
2019-Sep-19 11:24 307 16 gusting 24 19.4
2019-Sep-19 11:19 321 19 gusting 21 19.4
2019-Sep-19 11:14 347 19 gusting 24 19.4
2019-Sep-19 11:09 005 10 gusting 24 19.4
2019-Sep-19 11:04 330 13 gusting 20 19.4
2019-Sep-19 10:59 319 13 gusting 21 19.4
2019-Sep-19 10:54 013 15 gusting 21 20.0
2019-Sep-19 10:49 345 9 gusting 23 20.0
2019-Sep-19 10:44 329 15 gusting 23 20.0
2019-Sep-19 10:39 330 11 gusting 19 20.6
2019-Sep-19 10:34 323 14 gusting 19 20.6
2019-Sep-19 10:29 013 8 gusting 20 20.6
2019-Sep-19 10:24 298 12 gusting 20 20.6
2019-Sep-19 10:19 344 5 gusting 18 20.6
2019-Sep-19 10:14 298 13 gusting 17 20.6
2019-Sep-19 10:09 005 11 gusting 18 21.1
2019-Sep-19 10:04 350 10 gusting 19 20.6
2019-Sep-19 09:59 340 10 gusting 19 20.6
2019-Sep-19 09:54 013 15 gusting 22 20.6
2019-Sep-19 09:49 012 9 gusting 20 20.6
2019-Sep-19 09:44 306 13 gusting 17 20.6
2019-Sep-19 09:39 317 12 gusting 18 20.6
2019-Sep-19 09:34 342 5 gusting 19 20.6
2019-Sep-19 09:29 045 12 gusting 18 20.6
2019-Sep-19 09:24 304 3 gusting 19 20.6
2019-Sep-19 09:19 346 15 gusting 19 20.6
2019-Sep-19 09:14 015 13 gusting 20 20.0
2019-Sep-19 09:09 326 13 gusting 30 20.0
2019-Sep-19 09:04 035 14 gusting 22 19.4
2019-Sep-19 08:59 014 13 gusting 22 19.4
2019-Sep-19 08:54 005 13 gusting 26 19.4
2019-Sep-19 08:49 332 14 gusting 26 19.4
2019-Sep-19 08:44 350 14 gusting 24 19.4
2019-Sep-19 08:39 338 13 gusting 23 19.4
2019-Sep-19 08:34 005 13 gusting 23 19.4
2019-Sep-19 08:29 341 18 gusting 25 19.4
2019-Sep-19 08:24 013 14 gusting 23 19.4
2019-Sep-19 08:19 350 13 gusting 21 19.4
2019-Sep-19 08:14 082 15 gusting 22 19.4
2019-Sep-19 08:09 347 12 gusting 22 19.4
2019-Sep-19 08:04 319 15 gusting 23 19.4
2019-Sep-19 07:59 355 7 gusting 22 19.4
2019-Sep-19 07:54 355 17 gusting 25 19.4
2019-Sep-19 07:49 030 17 gusting 25 19.4
2019-Sep-19 07:44 005 15 gusting 26 18.9
2019-Sep-19 07:39 016 18 gusting 23 18.9
2019-Sep-19 07:34 042 14 gusting 24 18.9
2019-Sep-19 07:29 309 6 gusting 22 18.9
2019-Sep-19 07:24 041 13 gusting 22 19.4
2019-Sep-19 07:19 340 15 gusting 20 19.4
2019-Sep-19 07:14 296 13 gusting 21 19.4
2019-Sep-19 07:09 005 8 gusting 23 19.4
2019-Sep-19 07:04 331 16 gusting 22 19.4
2019-Sep-19 06:59 285 9 gusting 19 19.4
2019-Sep-19 06:54 340 13 gusting 19 20.0
2019-Sep-19 06:49 322 14 gusting 22 20.0
2019-Sep-19 06:44 20.0
2019-Sep-19 06:39 300 14 gusting 24 20.0
2019-Sep-19 06:34 350 11 gusting 23 20.0
2019-Sep-19 06:29 336 12 gusting 20 20.0
2019-Sep-19 06:24 298 14 gusting 22 20.0
2019-Sep-19 06:19 329 16 gusting 20 20.0
2019-Sep-19 06:14 341 10 gusting 24 20.0
2019-Sep-19 06:09 028 19 gusting 20 20.0
2019-Sep-19 06:04 278 15 gusting 23 20.0
2019-Sep-19 05:59 011 6 gusting 20 20.0
2019-Sep-19 05:54 330 13 gusting 23 19.4
2019-Sep-19 05:49 329 10 gusting 19 19.4
2019-Sep-19 05:44 010 6 gusting 20 19.4
2019-Sep-19 05:39 009 15 gusting 18 19.4
2019-Sep-19 05:34 348 7 gusting 16 19.4
2019-Sep-19 05:29 329 12 gusting 13 20.0
2019-Sep-19 05:24 292 7 gusting 11 20.0
2019-Sep-19 05:19 20.0
2019-Sep-19 05:14 055 6 gusting 13 20.6
2019-Sep-19 05:09 355 12 gusting 12 21.1
2019-Sep-19 05:04 21.7